Location: Unspecified
(0.0000°N, 0.0000°E)
Time: 19:41:37
(UTC+00:00)

SIRIUS-1 - Visible Passes

Search period start: 23 July 2021 00:00
Search period end: 02 August 2021 00:00
Orbit: 24764 x 24788 km, 59.4° (Epoch: 22 July)

Date Brightness Start Highest point End Pass type
(mag) Time Alt. Az. Time Alt. Az. Time Alt. Az.
24 Jul 11.9 13:09:22 10° SSW 17:08:44 84° W 02:53:47 10° SE visible
26 Jul 11.5 04:04:54 10° NNW 06:54:10 46° W 18:04:07 10° NNE visible
27 Jul 12.0 19:46:21 10° WSW 20:29:56 12° WSW 21:20:21 10° W visible
29 Jul 12.1 15:37:30 10° SSW 18:31:56 49° W 05:36:54 10° SSE daylight
31 Jul 11.7 07:03:10 10° NW 16:23:45 90° E 01:42:31 10° SE visible
